Orbital Elements at Epoch 2459000.5 (2020-May-31.0) TDB
Reference: JPL 20 (heliocentric ecliptic J2000)
Element | Value | Uncertainty (1-sigma) | Units |
e | .1616394398290472 | 4.2454e-08 | |
a | 2.252211069766715 | 7.6604e-09 | au |
q | 1.888164934072844 | 9.416e-08 | au |
i | 3.937025571599611 | 4.0273e-06 | deg |
node | 300.770052252025 | 6.0776e-05 | deg |
peri | 7.938517303403438 | 6.2176e-05 | deg |
M | 204.3442391841435 | 1.4942e-05 | deg |
tp | 2459534.295314968216 (2021-Nov-15.79531497) | 5.2444e-05 | TDB |
period | 1234.559597289135 3.38 | 6.2986e-06 1.724e-08 | d yr |
n | .2916019613718881 | 1.4877e-09 | deg/d |
Q | 2.616257205460586 | 8.8986e-09 | au |
|
| | Orbit Determination Parameters
Additional Information
|